{"data":{"norad_id":59892,"epoch":"2026-05-25T01:57:35.341056Z","epoch_age_seconds":78117,"freshness":"FRESH","line1":"1 59892U 24100H   26145.08165904  .00000598  00000+0  31225-4 0  9999","line2":"2 59892  43.0005  46.7411 0000966 276.4688  83.6054 15.27587497112928","mean_motion":15.27587497,"eccentricity":9.66e-5,"inclination_deg":43.0005,"raan_deg":46.7411,"arg_perigee_deg":276.4688,"mean_anomaly_deg":83.6054,"bstar":3.1225e-5,"rev_number":11292,"period_min":94.266286077098,"perigee_km":482.36385900809,"apogee_km":483.68943582477,"semimajor_km":6861.1636474164,"source":"CELESTRAK","updated_at":"2026-05-25T13:38:19.117293Z"}}